SWA130 KRSW-KDEN

Flight info

Callsign SWA130
Flight time N/A
Altitude 38000
Route CSHEL8 JAWJA CABLO KWANE KF33E/N0442F400 TOTOE HALEN NIIXX4
Aircraft B737/M-SDE2E3FGHIRWXY/LB1

Departure

Time 2026-04-30 11:20
Airport Southwest Florida International Airport (KRSW)

Arrival

Time N/A
Airport Denver International Airport (KDEN)
Time Latitude Longitude Altitude Speed Heading
2026-04-30 10:45 26.52913 -81.75218 43 ft 0 kts 166°
2026-04-30 11:05 26.52929 -81.75222 40 ft 4 kts 171°
2026-04-30 11:06 26.52954 -81.75228 42 ft 4 kts 142°
2026-04-30 11:06 26.52968 -81.75249 41 ft 4 kts 105°
2026-04-30 11:06 26.52967 -81.75275 42 ft 4 kts 52°
2026-04-30 11:06 26.52949 -81.75296 43 ft 3 kts 55°
2026-04-30 11:07 26.52948 -81.75299 43 ft 0 kts 57°
2026-04-30 11:13 26.52951 -81.75292 43 ft 3 kts 56°
2026-04-30 11:13 26.52980 -81.75245 41 ft 11 kts 54°
2026-04-30 11:13 26.53034 -81.75167 41 ft 15 kts 53°
2026-04-30 11:13 26.53100 -81.75067 43 ft 16 kts 52°
2026-04-30 11:14 26.53190 -81.75067 43 ft 15 kts 322°
2026-04-30 11:14 26.53275 -81.75133 43 ft 15 kts 322°
2026-04-30 11:14 26.53351 -81.75201 43 ft 14 kts 321°
2026-04-30 11:14 26.53428 -81.75263 43 ft 13 kts 325°
2026-04-30 11:15 26.53502 -81.75321 43 ft 13 kts 325°
2026-04-30 11:15 26.53579 -81.75353 43 ft 13 kts 30°
2026-04-30 11:15 26.53635 -81.75280 43 ft 12 kts 53°
2026-04-30 11:15 26.53685 -81.75204 42 ft 12 kts 53°
2026-04-30 11:16 26.53736 -81.75125 42 ft 13 kts 54°
2026-04-30 11:16 26.53789 -81.75042 42 ft 14 kts 54°
2026-04-30 11:16 26.53849 -81.74951 43 ft 16 kts 53°
2026-04-30 11:16 26.53920 -81.74843 44 ft 19 kts 53°
2026-04-30 11:17 26.54002 -81.74719 42 ft 21 kts 53°
2026-04-30 11:17 26.54090 -81.74581 42 ft 23 kts 54°
2026-04-30 11:17 26.54188 -81.74429 44 ft 25 kts 54°
2026-04-30 11:17 26.54294 -81.74267 43 ft 27 kts 54°
2026-04-30 11:18 26.54393 -81.74114 44 ft 22 kts 54°
2026-04-30 11:18 26.54548 -81.74021 44 ft 12 kts 326°
2026-04-30 11:18 26.54565 -81.74058 42 ft 0 kts 237°
2026-04-30 11:19 26.54564 -81.74059 43 ft 0 kts 236°
2026-04-30 11:19 26.54505 -81.74153 43 ft 51 kts 234°
2026-04-30 11:19 26.54111 -81.74755 45 ft 137 kts 233°
2026-04-30 11:19 26.53405 -81.75818 249 ft 192 kts 232°
2026-04-30 11:20 26.52550 -81.77026 1155 ft 208 kts 232°
2026-04-30 11:20 26.51650 -81.78380 2015 ft 220 kts 235°
2026-04-30 11:20 26.50769 -81.79802 2973 ft 223 kts 235°
2026-04-30 11:20 26.49976 -81.81287 3925 ft 226 kts 251°
2026-04-30 11:21 26.49760 -81.83048 4871 ft 233 kts 264°
2026-04-30 11:21 26.49652 -81.84856 5936 ft 234 kts 267°
2026-04-30 11:21 26.49923 -81.86710 6553 ft 260 kts 294°
2026-04-30 11:21 26.51140 -81.88270 7237 ft 277 kts 326°
2026-04-30 11:22 26.52915 -81.89144 8220 ft 282 kts 342°
2026-04-30 11:22 26.54841 -81.89672 9235 ft 287 kts 345°
2026-04-30 11:22 26.56795 -81.90165 10199 ft 291 kts 344°
2026-04-30 11:22 26.58821 -81.90708 10728 ft 312 kts 343°
2026-04-30 11:23 26.61022 -81.91329 11021 ft 337 kts 343°
2026-04-30 11:23 26.63343 -81.91891 11765 ft 346 kts 352°
2026-04-30 11:23 26.68192 -81.91285 13642 ft 355 kts
2026-04-30 11:24 26.70647 -81.90859 14435 ft 358 kts
2026-04-30 11:24 26.73124 -81.90454 15237 ft 362 kts
2026-04-30 11:24 26.75627 -81.90056 16054 ft 365 kts
2026-04-30 11:25 26.80416 -81.87886 17649 ft 382 kts 26°
2026-04-30 11:25 26.82716 -81.86362 18396 ft 387 kts 26°
2026-04-30 11:25 26.87400 -81.83287 19706 ft 393 kts 26°
2026-04-30 11:26 26.92186 -81.80219 21008 ft 399 kts 26°
2026-04-30 11:26 26.94638 -81.78739 21629 ft 402 kts 23°
2026-04-30 11:26 26.97152 -81.77342 22219 ft 405 kts 22°
2026-04-30 11:27 26.99669 -81.75978 22788 ft 408 kts 19°
2026-04-30 11:27 27.02398 -81.75212 23300 ft 405 kts
2026-04-30 11:27 27.05198 -81.75376 23803 ft 404 kts 346°
2026-04-30 11:27 27.07900 -81.76220 24292 ft 404 kts 341°
2026-04-30 11:28 27.13295 -81.78164 25194 ft 410 kts 341°
2026-04-30 11:28 27.16020 -81.79148 25653 ft 413 kts 341°
2026-04-30 11:28 27.18769 -81.80124 26116 ft 415 kts 341°
2026-04-30 11:29 27.21531 -81.81091 26578 ft 418 kts 341°
2026-04-30 11:29 27.24314 -81.82057 27027 ft 420 kts 341°
2026-04-30 11:29 27.29948 -81.84007 27862 ft 426 kts 341°
2026-04-30 11:30 27.35642 -81.85980 28709 ft 431 kts 341°
2026-04-30 11:30 27.38511 -81.86976 29111 ft 433 kts 341°
2026-04-30 11:30 27.41399 -81.87978 29505 ft 436 kts 341°
2026-04-30 11:31 27.44307 -81.88989 29884 ft 438 kts 341°
2026-04-30 11:31 27.47228 -81.90004 30224 ft 441 kts 341°
2026-04-30 11:31 27.50165 -81.91025 30554 ft 442 kts 341°
2026-04-30 11:31 27.53113 -81.92050 30888 ft 444 kts 341°
2026-04-30 11:32 27.56065 -81.93078 31245 ft 445 kts 341°
2026-04-30 11:32 27.59017 -81.94106 31710 ft 443 kts 341°
2026-04-30 11:32 27.61945 -81.95126 32237 ft 439 kts 341°
2026-04-30 11:33 27.67753 -81.97152 33218 ft 435 kts 340°
2026-04-30 11:33 27.70642 -81.98161 33634 ft 434 kts 340°
2026-04-30 11:33 27.73526 -81.99169 34049 ft 433 kts 340°
2026-04-30 11:33 27.76392 -82.00170 34474 ft 430 kts 340°
2026-04-30 11:34 27.79234 -82.01158 34970 ft 424 kts 340°
2026-04-30 11:34 27.82047 -82.02110 35480 ft 419 kts 341°
2026-04-30 11:34 27.84824 -82.03038 36004 ft 413 kts 340°
2026-04-30 11:34 27.87545 -82.03945 36728 ft 402 kts 340°
2026-04-30 11:35 27.90207 -82.04835 37211 ft 397 kts 340°
2026-04-30 11:35 27.92855 -82.05726 37507 ft 397 kts 340°
2026-04-30 11:35 27.95503 -82.06619 37749 ft 397 kts 340°
2026-04-30 11:35 27.98147 -82.07512 37998 ft 397 kts 340°
2026-04-30 11:36 28.03483 -82.09315 37980 ft 400 kts 340°
2026-04-30 11:36 28.08800 -82.11040 37976 ft 396 kts 346°
2026-04-30 11:37 28.14301 -82.11665 38010 ft 398 kts 351°
2026-04-30 11:37 28.19828 -82.12099 37992 ft 397 kts 351°
2026-04-30 11:38 28.25353 -82.12593 38005 ft 401 kts 350°
2026-04-30 11:38 28.30928 -82.13128 37995 ft 407 kts 350°
2026-04-30 11:39 28.36571 -82.13675 37988 ft 407 kts 350°
2026-04-30 11:39 28.42226 -82.14223 37980 ft 407 kts 350°
2026-04-30 11:40 28.47608 -82.15703 38004 ft 394 kts 330°
2026-04-30 11:40 28.49903 -82.17374 37961 ft 392 kts 319°
2026-04-30 11:40 28.51851 -82.19533 37969 ft 391 kts 313°
2026-04-30 11:41 28.55448 -82.24158 37966 ft 390 kts 311°
2026-04-30 11:41 28.59005 -82.28819 37964 ft 389 kts 312°
2026-04-30 11:42 28.62575 -82.33437 37979 ft 388 kts 312°
2026-04-30 11:42 28.66153 -82.38032 37980 ft 388 kts 312°
2026-04-30 11:43 28.69738 -82.42628 37983 ft 387 kts 313°
2026-04-30 11:43 28.73311 -82.47213 37980 ft 387 kts 313°
2026-04-30 11:44 28.76886 -82.51805 37963 ft 387 kts 313°
2026-04-30 11:44 28.79841 -82.55605 37956 ft 385 kts 312°
2026-04-30 11:45 28.83393 -82.60179 37992 ft 384 kts 312°
2026-04-30 11:45 28.86924 -82.64729 37991 ft 382 kts 312°
2026-04-30 11:46 28.90440 -82.69266 37987 ft 381 kts 312°
2026-04-30 11:46 28.93944 -82.73793 37979 ft 380 kts 312°
2026-04-30 11:47 28.97445 -82.78321 37959 ft 380 kts 313°
2026-04-30 11:47 29.00934 -82.82838 37965 ft 379 kts 313°
2026-04-30 11:48 29.04420 -82.87355 37957 ft 379 kts 313°
2026-04-30 11:48 29.08189 -82.91535 37957 ft 379 kts 323°
2026-04-30 11:49 29.12517 -82.94997 37956 ft 379 kts 324°
2026-04-30 11:49 29.16802 -82.98446 37945 ft 379 kts 323°
2026-04-30 11:50 29.21095 -83.01948 37947 ft 379 kts 323°
2026-04-30 11:50 29.25383 -83.05459 37949 ft 379 kts 323°
2026-04-30 11:51 29.29679 -83.08977 37947 ft 379 kts 323°
2026-04-30 11:51 29.33964 -83.12490 37947 ft 379 kts 323°
2026-04-30 11:52 29.38248 -83.16006 37952 ft 379 kts 323°
2026-04-30 11:52 29.42534 -83.19529 37940 ft 379 kts 323°
2026-04-30 11:53 29.46827 -83.23061 37947 ft 379 kts 323°
2026-04-30 11:53 29.51108 -83.26587 37948 ft 379 kts 323°
2026-04-30 11:54 29.55387 -83.30115 37944 ft 379 kts 323°
2026-04-30 11:54 29.59665 -83.33646 37944 ft 379 kts 323°
2026-04-30 11:55 29.63950 -83.37187 37945 ft 379 kts 323°
2026-04-30 11:55 29.68229 -83.40725 37955 ft 379 kts 322°
2026-04-30 11:56 29.72503 -83.44265 37947 ft 378 kts 322°
2026-04-30 11:56 29.76768 -83.47801 37944 ft 377 kts 322°
2026-04-30 11:57 29.81019 -83.51329 37950 ft 376 kts 322°
2026-04-30 11:57 29.85267 -83.54858 37953 ft 376 kts 322°
2026-04-30 11:58 29.89509 -83.58379 37961 ft 376 kts 322°
2026-04-30 11:58 29.93762 -83.61907 37957 ft 376 kts 322°
2026-04-30 11:59 29.98013 -83.65438 37972 ft 377 kts 321°
2026-04-30 11:59 30.02269 -83.68978 37958 ft 377 kts 321°
2026-04-30 12:00 30.06523 -83.72522 37962 ft 377 kts 321°
2026-04-30 12:00 30.10753 -83.76049 37958 ft 377 kts 321°
2026-04-30 12:01 30.15003 -83.79595 37957 ft 377 kts 321°
2026-04-30 12:01 30.18770 -83.83724 37962 ft 374 kts 306°
2026-04-30 12:02 30.21727 -83.88698 37949 ft 375 kts 305°
2026-04-30 12:02 30.24637 -83.93709 37946 ft 376 kts 305°
2026-04-30 12:03 30.29044 -84.01219 37957 ft 376 kts 305°
2026-04-30 12:04 30.31990 -84.06211 37941 ft 374 kts 305°
2026-04-30 12:04 30.34922 -84.11178 37943 ft 373 kts 305°
2026-04-30 12:05 30.37843 -84.16131 37945 ft 372 kts 305°
2026-04-30 12:05 30.40754 -84.21072 37943 ft 371 kts 305°
2026-04-30 12:06 30.43661 -84.26014 37942 ft 370 kts 305°
2026-04-30 12:06 30.46558 -84.30946 37933 ft 371 kts 305°
2026-04-30 12:07 30.49457 -84.35886 37953 ft 371 kts 305°
2026-04-30 12:07 30.52349 -84.40819 37938 ft 372 kts 305°
2026-04-30 12:08 30.55262 -84.45797 37940 ft 374 kts 305°
2026-04-30 12:08 30.58185 -84.50797 37939 ft 375 kts 305°
2026-04-30 12:09 30.61121 -84.55825 37935 ft 376 kts 304°
2026-04-30 12:09 30.64054 -84.60856 37938 ft 376 kts 304°
2026-04-30 12:10 30.66988 -84.65892 37938 ft 377 kts 304°
2026-04-30 12:10 30.69921 -84.70935 37931 ft 377 kts 304°
2026-04-30 12:11 30.72858 -84.75993 37931 ft 377 kts 304°
2026-04-30 12:11 30.75789 -84.81043 37934 ft 377 kts 304°
2026-04-30 12:12 30.78567 -84.86205 37939 ft 377 kts 300°
2026-04-30 12:12 30.81041 -84.91579 37941 ft 377 kts 300°
2026-04-30 12:13 30.83500 -84.96969 37941 ft 377 kts 300°
2026-04-30 12:13 30.85943 -85.02309 37959 ft 376 kts 300°
2026-04-30 12:14 30.88418 -85.07709 37952 ft 375 kts 300°
2026-04-30 12:14 30.90844 -85.13002 37951 ft 372 kts 300°
2026-04-30 12:15 30.93275 -85.18310 37951 ft 370 kts 300°
2026-04-30 12:15 30.95686 -85.23582 37910 ft 368 kts 300°
2026-04-30 12:16 30.98087 -85.28841 37893 ft 366 kts 300°
2026-04-30 12:16 31.00474 -85.34077 37922 ft 366 kts 300°
2026-04-30 12:17 31.04049 -85.41930 37938 ft 366 kts 300°
2026-04-30 12:17 31.06431 -85.47171 37927 ft 366 kts 299°
2026-04-30 12:18 31.08813 -85.52420 37929 ft 366 kts 299°
2026-04-30 12:18 31.11193 -85.57673 37917 ft 366 kts 299°
2026-04-30 12:19 31.13576 -85.62939 37926 ft 367 kts 299°
2026-04-30 12:19 31.15954 -85.68202 37934 ft 367 kts 299°
2026-04-30 12:20 31.18340 -85.73488 37953 ft 369 kts 299°
2026-04-30 12:20 31.20716 -85.78761 37930 ft 368 kts 299°
2026-04-30 12:21 31.23087 -85.84032 37961 ft 365 kts 299°
2026-04-30 12:21 31.25440 -85.89268 37959 ft 363 kts 299°
2026-04-30 12:22 31.27778 -85.94478 37963 ft 361 kts 299°
2026-04-30 12:22 31.30109 -85.99680 37961 ft 360 kts 299°
2026-04-30 12:23 31.32427 -86.04861 37959 ft 360 kts 299°
2026-04-30 12:23 31.34743 -86.10044 37955 ft 360 kts 299°
2026-04-30 12:24 31.37065 -86.15246 37953 ft 361 kts 299°
2026-04-30 12:24 31.39386 -86.20455 37937 ft 362 kts 298°
2026-04-30 12:25 31.41712 -86.25683 37941 ft 363 kts 298°
2026-04-30 12:25 31.44046 -86.30934 37940 ft 364 kts 298°
2026-04-30 12:26 31.46373 -86.36180 37943 ft 366 kts 298°
2026-04-30 12:26 31.48717 -86.41470 37939 ft 366 kts 298°
2026-04-30 12:27 31.51054 -86.46753 37934 ft 365 kts 298°
2026-04-30 12:27 31.53381 -86.52019 37929 ft 363 kts 298°
2026-04-30 12:28 31.55700 -86.57277 37914 ft 362 kts 298°
2026-04-30 12:28 31.58006 -86.62509 37922 ft 361 kts 298°
2026-04-30 12:29 31.60309 -86.67744 37942 ft 360 kts 298°
2026-04-30 12:29 31.62605 -86.72971 37941 ft 360 kts 298°
2026-04-30 12:30 31.64900 -86.78202 37946 ft 361 kts 298°
2026-04-30 12:30 31.67194 -86.83438 37948 ft 361 kts 298°
2026-04-30 12:31 31.69488 -86.88684 37941 ft 361 kts 298°
2026-04-30 12:31 31.71787 -86.93946 37941 ft 362 kts 298°
2026-04-30 12:32 31.74082 -86.99207 37939 ft 362 kts 297°
2026-04-30 12:32 31.76364 -87.04447 37943 ft 362 kts 297°
2026-04-30 12:33 31.78658 -87.09721 37946 ft 362 kts 298°
2026-04-30 12:33 31.80945 -87.14986 37942 ft 361 kts 298°
2026-04-30 12:34 31.83225 -87.20245 37941 ft 361 kts 298°
2026-04-30 12:34 31.85494 -87.25484 37946 ft 359 kts 298°
2026-04-30 12:35 31.87372 -87.29827 37943 ft 358 kts 298°
2026-04-30 12:35 31.89623 -87.35038 37932 ft 357 kts 297°
2026-04-30 12:36 31.91869 -87.40245 37945 ft 356 kts 297°
2026-04-30 12:36 31.94105 -87.45437 37946 ft 356 kts 297°
2026-04-30 12:37 31.96338 -87.50628 37953 ft 356 kts 297°
2026-04-30 12:37 31.98576 -87.55840 37953 ft 356 kts 297°
2026-04-30 12:38 32.00813 -87.61055 37950 ft 357 kts 297°
2026-04-30 12:38 32.03052 -87.66284 37971 ft 359 kts 297°
2026-04-30 12:39 32.05318 -87.71583 37940 ft 364 kts 297°
2026-04-30 12:39 32.07582 -87.76887 37967 ft 358 kts 297°
2026-04-30 12:40 32.09790 -87.82066 37948 ft 353 kts 297°
2026-04-30 12:40 32.11991 -87.87237 37955 ft 353 kts 297°
2026-04-30 12:41 32.14183 -87.92393 37951 ft 350 kts 297°
2026-04-30 12:41 32.16361 -87.97523 37954 ft 348 kts 297°
2026-04-30 12:42 32.18525 -88.02629 37965 ft 348 kts 297°
2026-04-30 12:42 32.20696 -88.07757 37969 ft 350 kts 297°
2026-04-30 12:43 32.22868 -88.12895 37970 ft 357 kts 296°
2026-04-30 12:43 32.25112 -88.18211 37952 ft 363 kts 296°
2026-04-30 12:44 32.27352 -88.23527 37964 ft 360 kts 296°
2026-04-30 12:44 32.29574 -88.28808 37978 ft 358 kts 296°
2026-04-30 12:45 32.31787 -88.34075 37986 ft 357 kts 296°
2026-04-30 12:45 32.33989 -88.39325 38018 ft 355 kts 296°
2026-04-30 12:46 32.36180 -88.44554 38013 ft 354 kts 296°
2026-04-30 12:46 32.38449 -88.49733 38000 ft 354 kts 298°
2026-04-30 12:47 32.40829 -88.54842 38008 ft 355 kts 298°
2026-04-30 12:47 32.43213 -88.59964 38017 ft 355 kts 298°
2026-04-30 12:48 32.45587 -88.65099 38011 ft 356 kts 298°
2026-04-30 12:48 32.47957 -88.70252 38004 ft 356 kts 298°
2026-04-30 12:49 32.50310 -88.75382 37995 ft 356 kts 298°
2026-04-30 12:49 32.52674 -88.80545 37964 ft 357 kts 298°
2026-04-30 12:50 32.55042 -88.85725 37945 ft 358 kts 297°
2026-04-30 12:50 32.57419 -88.90931 37964 ft 359 kts 297°
2026-04-30 12:51 32.59796 -88.96146 37972 ft 360 kts 297°
2026-04-30 12:51 32.62178 -89.01380 37985 ft 361 kts 297°
2026-04-30 12:52 32.64549 -89.06598 37986 ft 358 kts 297°
2026-04-30 12:52 32.66904 -89.11785 38002 ft 355 kts 297°
2026-04-30 12:53 32.69235 -89.16930 38018 ft 353 kts 297°
2026-04-30 12:53 32.71551 -89.22046 38018 ft 351 kts 297°
2026-04-30 12:54 32.73857 -89.27150 37992 ft 350 kts 297°
2026-04-30 12:54 32.76153 -89.32237 38001 ft 350 kts 297°
2026-04-30 12:55 32.78460 -89.37357 37981 ft 353 kts 297°
2026-04-30 12:55 32.80771 -89.42493 37953 ft 355 kts 297°
2026-04-30 12:56 32.83092 -89.47658 37939 ft 354 kts 297°
2026-04-30 12:56 32.85423 -89.52852 37926 ft 354 kts 297°
2026-04-30 12:57 32.87737 -89.58018 37948 ft 353 kts 297°
2026-04-30 12:57 32.90031 -89.63145 37955 ft 354 kts 297°
2026-04-30 12:58 32.92339 -89.68312 37942 ft 354 kts 296°
2026-04-30 12:58 32.94643 -89.73475 37978 ft 353 kts 296°
2026-04-30 12:59 32.96946 -89.78645 37970 ft 353 kts 296°
2026-04-30 12:59 32.99241 -89.83803 37982 ft 353 kts 296°
2026-04-30 13:00 33.01542 -89.88983 37980 ft 354 kts 296°
2026-04-30 13:00 33.03847 -89.94180 37979 ft 355 kts 296°
2026-04-30 13:01 33.06153 -89.99387 37971 ft 354 kts 296°
2026-04-30 13:01 33.08445 -90.04569 37999 ft 352 kts 296°
2026-04-30 13:02 33.10724 -90.09729 38000 ft 351 kts 296°
2026-04-30 13:02 33.12981 -90.14848 37993 ft 350 kts 296°
2026-04-30 13:03 33.15242 -90.19982 38013 ft 349 kts 296°
2026-04-30 13:03 33.17497 -90.25113 38029 ft 349 kts 295°
2026-04-30 13:04 33.19750 -90.30245 38023 ft 348 kts 295°
2026-04-30 13:04 33.21994 -90.35363 38023 ft 348 kts 295°
2026-04-30 13:05 33.24235 -90.40480 38015 ft 348 kts 295°
2026-04-30 13:06 33.27598 -90.48175 38036 ft 349 kts 295°
2026-04-30 13:06 33.29844 -90.53324 38036 ft 350 kts 295°
2026-04-30 13:07 33.32098 -90.58501 38041 ft 351 kts 295°
2026-04-30 13:07 33.34358 -90.63696 38040 ft 352 kts 295°
2026-04-30 13:08 33.36617 -90.68897 38045 ft 353 kts 295°
2026-04-30 13:08 33.38861 -90.74072 38050 ft 353 kts 295°
2026-04-30 13:09 33.41119 -90.79287 38059 ft 353 kts 295°
2026-04-30 13:09 33.43379 -90.84512 38054 ft 353 kts 295°
2026-04-30 13:10 33.45628 -90.89722 38053 ft 352 kts 295°
2026-04-30 13:10 33.47870 -90.94922 38054 ft 351 kts 295°
2026-04-30 13:11 33.50104 -91.00111 38055 ft 350 kts 295°
2026-04-30 13:11 33.52334 -91.05301 38055 ft 350 kts 295°
2026-04-30 13:12 33.54555 -91.10476 38056 ft 349 kts 295°
2026-04-30 13:12 33.56775 -91.15657 38053 ft 349 kts 295°
2026-04-30 13:13 33.60097 -91.23424 38057 ft 349 kts 295°
2026-04-30 13:14 33.63418 -91.31204 38055 ft 349 kts 295°
2026-04-30 13:14 33.66724 -91.38968 38062 ft 350 kts 295°
2026-04-30 13:15 33.70045 -91.46786 38082 ft 350 kts 294°
2026-04-30 13:16 33.72252 -91.51989 38069 ft 349 kts 294°
2026-04-30 13:16 33.74464 -91.57211 38068 ft 348 kts 294°
2026-04-30 13:17 33.77733 -91.64948 38061 ft 347 kts 294°
2026-04-30 13:18 33.80995 -91.72683 38062 ft 346 kts 294°
2026-04-30 13:18 33.84249 -91.80417 38065 ft 345 kts 294°
2026-04-30 13:19 33.86418 -91.85582 38072 ft 345 kts 294°
2026-04-30 13:19 33.88583 -91.90745 38079 ft 346 kts 294°
2026-04-30 13:20 33.90749 -91.95919 38086 ft 346 kts 294°
2026-04-30 13:20 33.92916 -92.01102 38087 ft 347 kts 294°
2026-04-30 13:21 33.95087 -92.06304 38109 ft 347 kts 293°
2026-04-30 13:22 33.98328 -92.14082 38095 ft 345 kts 293°
2026-04-30 13:22 34.01542 -92.21811 38091 ft 343 kts 293°
2026-04-30 13:23 34.04373 -92.28637 38085 ft 341 kts 293°
2026-04-30 13:24 34.08599 -92.38850 38079 ft 340 kts 293°
2026-04-30 13:25 34.12810 -92.49058 38085 ft 340 kts 293°
2026-04-30 13:26 34.18068 -92.61848 38081 ft 341 kts 293°
2026-04-30 13:28 34.23336 -92.74708 38095 ft 342 kts 292°
2026-04-30 13:28 34.26490 -92.82430 38091 ft 341 kts 292°
2026-04-30 13:29 34.30668 -92.92689 38086 ft 341 kts 292°
2026-04-30 13:31 34.35872 -93.05509 38088 ft 339 kts 291°
2026-04-30 13:32 34.41053 -93.18324 38089 ft 339 kts 291°
2026-04-30 13:33 34.45187 -93.28586 38094 ft 339 kts 291°
2026-04-30 13:34 34.48289 -93.36304 38091 ft 339 kts 291°
2026-04-30 13:35 34.52414 -93.46596 38085 ft 339 kts 291°
2026-04-30 13:36 34.56533 -93.56904 38073 ft 339 kts 291°
2026-04-30 13:36 34.59600 -93.64600 38074 ft 339 kts 291°
2026-04-30 13:37 34.62674 -93.72333 38075 ft 339 kts 291°
2026-04-30 13:38 34.65743 -93.80072 38082 ft 339 kts 291°
2026-04-30 13:39 34.69827 -93.90398 38101 ft 340 kts 290°
2026-04-30 13:40 34.72892 -93.98169 38087 ft 340 kts 290°
2026-04-30 13:40 34.74931 -94.03347 38090 ft 340 kts 290°
2026-04-30 13:41 34.76967 -94.08526 38083 ft 340 kts 290°
2026-04-30 13:41 34.79003 -94.13712 38092 ft 339 kts 290°
2026-04-30 13:42 34.81031 -94.18890 38085 ft 339 kts 290°
2026-04-30 13:42 34.84069 -94.26657 38087 ft 338 kts 290°
2026-04-30 13:43 34.86088 -94.31829 38089 ft 338 kts 290°
2026-04-30 13:43 34.88093 -94.36976 38102 ft 338 kts 290°
2026-04-30 13:44 34.90107 -94.42153 38107 ft 338 kts 290°
2026-04-30 13:44 34.92119 -94.47330 38129 ft 339 kts 290°
2026-04-30 13:45 34.95138 -94.55117 38112 ft 339 kts 290°
2026-04-30 13:46 34.97145 -94.60305 38113 ft 338 kts 290°
2026-04-30 13:46 34.99148 -94.65491 38120 ft 338 kts 290°
2026-04-30 13:47 35.01151 -94.70683 38096 ft 338 kts 290°
2026-04-30 13:47 35.03147 -94.75866 38097 ft 338 kts 290°
2026-04-30 13:48 35.05140 -94.81051 38101 ft 338 kts 290°
2026-04-30 13:48 35.07135 -94.86249 38104 ft 338 kts 290°
2026-04-30 13:49 35.09127 -94.91447 38101 ft 338 kts 290°
2026-04-30 13:49 35.11116 -94.96645 38102 ft 338 kts 289°
2026-04-30 13:50 35.13103 -95.01845 38099 ft 338 kts 289°
2026-04-30 13:50 35.16082 -95.09659 38118 ft 338 kts 290°
2026-04-30 13:51 35.18061 -95.14861 38100 ft 337 kts 290°
2026-04-30 13:51 35.20034 -95.20054 38103 ft 336 kts 290°
2026-04-30 13:52 35.21994 -95.25222 38104 ft 335 kts 290°
2026-04-30 13:52 35.23946 -95.30377 38106 ft 334 kts 290°
2026-04-30 13:53 35.25895 -95.35531 38109 ft 333 kts 289°
2026-04-30 13:53 35.27823 -95.40642 38114 ft 333 kts 289°
2026-04-30 13:54 35.29765 -95.45795 38122 ft 334 kts 289°
2026-04-30 13:54 35.31720 -95.50992 38127 ft 334 kts 289°
2026-04-30 13:55 35.33664 -95.56169 38128 ft 335 kts 289°
2026-04-30 13:55 35.35600 -95.61330 38132 ft 335 kts 289°
2026-04-30 13:56 35.37545 -95.66528 38166 ft 336 kts 289°
2026-04-30 13:56 35.39490 -95.71730 38136 ft 336 kts 289°
2026-04-30 13:57 35.41430 -95.76928 38135 ft 335 kts 289°
2026-04-30 13:57 35.43359 -95.82105 38140 ft 333 kts 289°
2026-04-30 13:58 35.46240 -95.89856 38135 ft 333 kts 289°
2026-04-30 13:59 35.48153 -95.95010 38143 ft 332 kts 289°
2026-04-30 13:59 35.50059 -96.00157 38144 ft 331 kts 289°
2026-04-30 14:00 35.51851 -96.05358 38141 ft 330 kts 288°
2026-04-30 14:00 35.54460 -96.13173 38146 ft 330 kts 287°
2026-04-30 14:01 35.56210 -96.18407 38143 ft 331 kts 287°
2026-04-30 14:01 35.57964 -96.23647 38143 ft 332 kts 287°
2026-04-30 14:02 35.59723 -96.28897 38185 ft 333 kts 288°
2026-04-30 14:02 35.61482 -96.34156 38143 ft 332 kts 288°
2026-04-30 14:03 35.63206 -96.39325 38141 ft 331 kts 288°
2026-04-30 14:03 35.64950 -96.44557 38137 ft 330 kts 288°
2026-04-30 14:04 35.66685 -96.49774 38140 ft 329 kts 287°
2026-04-30 14:04 35.68415 -96.54983 38141 ft 329 kts 287°
2026-04-30 14:05 35.70140 -96.60186 38151 ft 328 kts 287°
2026-04-30 14:05 35.71861 -96.65387 38152 ft 328 kts 287°
2026-04-30 14:06 35.74421 -96.73137 38148 ft 327 kts 287°
2026-04-30 14:07 35.76986 -96.80928 38146 ft 327 kts 287°
2026-04-30 14:08 35.79550 -96.88731 38143 ft 328 kts 287°
2026-04-30 14:08 35.82106 -96.96532 38147 ft 328 kts 287°
2026-04-30 14:09 35.83810 -97.01743 38148 ft 328 kts 287°
2026-04-30 14:10 35.86361 -97.09563 38143 ft 328 kts 287°
2026-04-30 14:10 35.88063 -97.14792 38151 ft 328 kts 287°
2026-04-30 14:11 35.89760 -97.20013 38154 ft 328 kts 287°
2026-04-30 14:11 35.91456 -97.25244 38151 ft 328 kts 287°
2026-04-30 14:12 35.92865 -97.29593 38153 ft 328 kts 287°
2026-04-30 14:12 35.94557 -97.34826 38154 ft 328 kts 287°
2026-04-30 14:13 35.96246 -97.40060 38151 ft 328 kts 287°
2026-04-30 14:13 35.97933 -97.45297 38149 ft 328 kts 287°
2026-04-30 14:14 35.99616 -97.50529 38154 ft 328 kts 287°
2026-04-30 14:14 36.01298 -97.55767 38193 ft 328 kts 287°
2026-04-30 14:15 36.02977 -97.61008 38151 ft 328 kts 286°
2026-04-30 14:15 36.04652 -97.66242 38137 ft 327 kts 286°
2026-04-30 14:16 36.06318 -97.71458 38143 ft 326 kts 286°
2026-04-30 14:16 36.07974 -97.76654 38133 ft 324 kts 286°
2026-04-30 14:17 36.09623 -97.81836 38132 ft 323 kts 286°
2026-04-30 14:17 36.11267 -97.87010 38132 ft 323 kts 286°
2026-04-30 14:18 36.12905 -97.92176 38141 ft 323 kts 286°
2026-04-30 14:18 36.15355 -97.99922 38127 ft 322 kts 286°
2026-04-30 14:19 36.17799 -98.07669 38134 ft 323 kts 286°
2026-04-30 14:20 36.19416 -98.12808 38134 ft 323 kts 286°
2026-04-30 14:20 36.21868 -98.20612 38133 ft 325 kts 286°
2026-04-30 14:21 36.23505 -98.25838 38143 ft 326 kts 286°
2026-04-30 14:22 36.25962 -98.33693 38127 ft 325 kts 286°
2026-04-30 14:22 36.28405 -98.41525 38137 ft 325 kts 285°
2026-04-30 14:23 36.31649 -98.51962 38138 ft 324 kts 285°
2026-04-30 14:24 36.34074 -98.59786 38139 ft 324 kts 285°
2026-04-30 14:25 36.37302 -98.70235 38144 ft 324 kts 285°
2026-04-30 14:26 36.39717 -98.78080 38146 ft 325 kts 285°
2026-04-30 14:27 36.42130 -98.85940 38199 ft 327 kts 285°
2026-04-30 14:27 36.43755 -98.91244 38156 ft 329 kts 285°
2026-04-30 14:28 36.46194 -98.99223 38152 ft 329 kts 285°
2026-04-30 14:28 36.47817 -99.04545 38152 ft 329 kts 285°
2026-04-30 14:29 36.51052 -99.15181 38149 ft 329 kts 285°
2026-04-30 14:31 36.55087 -99.28510 38157 ft 330 kts 285°
2026-04-30 14:31 36.57509 -99.36539 38157 ft 331 kts 285°
2026-04-30 14:32 36.59928 -99.44580 38161 ft 331 kts 284°
2026-04-30 14:33 36.61539 -99.49950 38210 ft 331 kts 284°
2026-04-30 14:33 36.63963 -99.58049 38173 ft 334 kts 284°
2026-04-30 14:34 36.65574 -99.63443 38160 ft 335 kts 284°
2026-04-30 14:34 36.67194 -99.68879 38164 ft 335 kts 284°
2026-04-30 14:35 36.69623 -99.77046 38163 ft 335 kts 284°
2026-04-30 14:36 36.71242 -99.82506 38156 ft 336 kts 284°
2026-04-30 14:36 36.72859 -99.87966 38165 ft 336 kts 284°
2026-04-30 14:37 36.74472 -99.93426 38166 ft 336 kts 284°
2026-04-30 14:37 36.76083 -99.98888 38163 ft 336 kts 284°
2026-04-30 14:38 36.77692 -100.04356 38147 ft 336 kts 284°
2026-04-30 14:38 36.79297 -100.09822 38165 ft 336 kts 284°
2026-04-30 14:39 36.80900 -100.15292 38198 ft 336 kts 284°
2026-04-30 14:39 36.82503 -100.20773 38161 ft 336 kts 284°
2026-04-30 14:40 36.84904 -100.28997 38158 ft 336 kts 284°
2026-04-30 14:40 36.86498 -100.34473 38159 ft 335 kts 284°
2026-04-30 14:41 36.88086 -100.39942 38160 ft 335 kts 284°
2026-04-30 14:41 36.89672 -100.45410 38159 ft 334 kts 284°
2026-04-30 14:42 36.91253 -100.50876 38157 ft 335 kts 284°
2026-04-30 14:42 36.92833 -100.56346 38165 ft 334 kts 284°
2026-04-30 14:43 36.94405 -100.61802 38153 ft 334 kts 284°
2026-04-30 14:43 36.95975 -100.67260 38186 ft 334 kts 284°
2026-04-30 14:44 36.97543 -100.72723 38200 ft 334 kts 284°
2026-04-30 14:44 36.99110 -100.78195 38246 ft 335 kts 284°
2026-04-30 14:45 37.00672 -100.83662 38220 ft 336 kts 284°
2026-04-30 14:45 37.02257 -100.89213 38212 ft 337 kts 284°
2026-04-30 14:46 37.03921 -100.94705 38207 ft 341 kts 289°
2026-04-30 14:46 37.05910 -100.99014 38204 ft 346 kts 295°
2026-04-30 14:47 37.09483 -101.04439 38207 ft 348 kts 300°
2026-04-30 14:47 37.12657 -101.09015 38201 ft 348 kts 300°
2026-04-30 14:48 37.15819 -101.13596 38189 ft 347 kts 300°
2026-04-30 14:48 37.18969 -101.18186 38217 ft 347 kts 300°
2026-04-30 14:49 37.22122 -101.22795 38165 ft 348 kts 300°
2026-04-30 14:49 37.25276 -101.27415 38192 ft 349 kts 300°
2026-04-30 14:50 37.30017 -101.34372 38152 ft 350 kts 300°
2026-04-30 14:51 37.34772 -101.41365 38161 ft 352 kts 300°
2026-04-30 14:52 37.39544 -101.48398 38230 ft 353 kts 301°
2026-04-30 14:52 37.44347 -101.55493 38172 ft 356 kts 301°
2026-04-30 14:53 37.49173 -101.62634 38188 ft 358 kts 301°
2026-04-30 14:54 37.55588 -101.72150 38194 ft 357 kts 300°
2026-04-30 14:55 37.60431 -101.79357 38253 ft 358 kts 301°
2026-04-30 14:56 37.66872 -101.88966 38181 ft 361 kts 301°
2026-04-30 14:57 37.71742 -101.96248 38163 ft 362 kts 301°
2026-04-30 14:58 37.78234 -102.05982 38115 ft 362 kts 301°
2026-04-30 14:58 37.83101 -102.13294 38125 ft 363 kts 302°
2026-04-30 15:00 37.91208 -102.24279 38117 ft 367 kts 304°
2026-04-30 15:01 37.98188 -102.33702 38137 ft 366 kts 303°
2026-04-30 15:01 38.03407 -102.40793 38163 ft 367 kts 303°
2026-04-30 15:02 38.06886 -102.45529 38175 ft 366 kts 303°
2026-04-30 15:03 38.15546 -102.57348 38188 ft 365 kts 303°
2026-04-30 15:04 38.24165 -102.69157 38189 ft 364 kts 303°
2026-04-30 15:06 38.32740 -102.80957 38152 ft 362 kts 303°
2026-04-30 15:07 38.39543 -102.90353 38135 ft 362 kts 303°
2026-04-30 15:08 38.46369 -102.99810 38132 ft 362 kts 303°
2026-04-30 15:09 38.54875 -103.11630 38139 ft 361 kts 303°
2026-04-30 15:10 38.61676 -103.21117 38154 ft 363 kts 303°
2026-04-30 15:11 38.68506 -103.30666 35916 ft 361 kts 302°
2026-04-30 15:11 38.71872 -103.35382 34850 ft 355 kts 301°
2026-04-30 15:12 38.76768 -103.42261 33322 ft 345 kts 301°
2026-04-30 15:13 38.79970 -103.46768 32391 ft 339 kts 302°
2026-04-30 15:14 38.86321 -103.55747 30253 ft 340 kts 303°
2026-04-30 15:14 38.91045 -103.62433 28760 ft 332 kts 304°
2026-04-30 15:16 38.98620 -103.73199 26476 ft 320 kts 305°
2026-04-30 15:17 39.04750 -103.81946 24589 ft 337 kts 307°
2026-04-30 15:18 39.12443 -103.92935 22123 ft 323 kts 308°
2026-04-30 15:19 39.16888 -103.99376 20984 ft 321 kts 308°